Location: DARK SKY Beskydy - Park tmavé oblohy, www.darkskybeskydy.cz
(49.4926°N, 18.5016°E)
Time: 04:20:00
(UTC+02:00)

A-11 Canister half - Pass Details

Date: 23 February 2024
Orbit: 1513 x 1686 km, 47.2° (Epoch: 24 April)

Event Time Altitude Azimuth Distance (km) Brightness Sun altitude
Rises 10:31:34 0° 284° (WNW) 4,817 11.3 27.5°
Reaches altitude 10° 10:38:22 10° 251° (WSW) 3,774 11.1 28.0°
Maximum altitude 10:40:15 11° 239° (WSW) 3,703 11.2 28.1°
Drops below altitude 10° 10:42:06 10° 227° (SW) 3,744 11.4 28.2°
Sets 10:48:47 0° 194° (SSW) 4,679 12.4 28.6°
